Pine Bluffs Muni, Pine Bluffs, WY

11:31 PM MDT on August 25, 2019 (GMT -0600)
Pine Bluffs Muni, Pine Bluffs

Weather History for K82V - July, 2019

Change the Weather History Date:

Sunday, July 21, 2019

  Actual Average (WUND) Record (WUND)
Temperature  
Mean Temperature 66 °F -  
Max Temperature 77 °F - - (-1)
Min Temperature 55 °F - - (-1)
Cooling Degree Days 1    
Growing Degree Days 16 (Base 50)    
Moisture  
Dew Point 58 °F    
Average Humidity 76    
Maximum Humidity 100    
Minimum Humidity 50    
Precipitation  
Precipitation 0.00 in - - ()
Sea Level Pressure  
Sea Level Pressure 30.23 in    
Wind  
Wind Speed 7 mph (ENE)    
Max Wind Speed 15 mph    
Max Gust Speed 21 mph    
Visibility 10 miles    
Events      
Averages and records for this station are not official NWS values.
T = Trace of Precipitation, MM = Missing Value Source: NWS Daily Summary

Daily Weather History Graph

Daily Weather History Graph

Search for Another Location

Airport or City:

Astronomy

Jul. 21, 2019 Rise Set
Actual Time 5:41 AM MDT 8:23 PM MDT
Civil Twilight 5:09 AM MDT 8:55 PM MDT
Nautical Twilight 4:29 AM MDT 9:35 PM MDT
Astronomical Twilight 3:43 AM MDT 10:21 PM MDT
Moon 11:16 PM MDT (7/21) 10:06 AM MDT (7/21)
Length of Visible Light 15h 46m
Length of Day
14h 41m
Waning Gibbous, 80% of the Moon is Illuminated
Jul 21
Waning Gibbous
Jul 24
Last Quarter
Jul 31
New
Aug 7
First Quarter
Aug 15
Full

Hourly Weather History & Observations

Time (MDT) Temp. Dew Point Humidity Pressure Visibility Wind Dir Wind Speed Gust Speed Precip Events Conditions
12:15 AM 59.0 °F 59.0 °F 100% 30.15 in 10.0 mi NE 12.7 mph - N/A   Scattered Clouds
12:35 AM 59.0 °F 57.2 °F 94% 30.13 in 10.0 mi ENE 13.8 mph 20.7 mph N/A   Clear
12:55 AM 59.0 °F 57.2 °F 94% 30.13 in 10.0 mi ENE 11.5 mph - N/A   Clear
1:15 AM 59.0 °F 57.2 °F 94% 30.13 in 10.0 mi Calm Calm - N/A   Clear
1:35 AM 59.0 °F 57.2 °F 94% 30.13 in 10.0 mi Calm Calm - N/A   Clear
1:55 AM 57.2 °F 55.4 °F 94% 30.13 in 10.0 mi North 6.9 mph - N/A   Clear
2:15 AM 55.4 °F 55.4 °F 100% 30.13 in 10.0 mi Calm Calm - N/A   Clear
2:35 AM 55.4 °F 55.4 °F 100% 30.12 in 10.0 mi Calm Calm - N/A   Clear
2:55 AM 55.4 °F 55.4 °F 100% 30.13 in 10.0 mi Calm Calm - N/A   Clear
3:15 AM 55.4 °F 55.4 °F 100% 30.14 in 10.0 mi Calm Calm - N/A   Scattered Clouds
3:35 AM 55.4 °F 55.4 °F 100% 30.15 in 10.0 mi SSW 3.5 mph - N/A   Mostly Cloudy
3:55 AM 59.0 °F 59.0 °F 100% 30.15 in 10.0 mi SSW 3.5 mph - N/A   Overcast
4:15 AM 59.0 °F 59.0 °F 100% 30.15 in 10.0 mi Calm Calm - N/A   Overcast
4:35 AM 59.0 °F 59.0 °F 100% 30.14 in 10.0 mi Calm Calm - N/A   Overcast
4:55 AM 60.8 °F 60.8 °F 100% 30.13 in 10.0 mi SE 4.6 mph - N/A   Overcast
5:15 AM 60.8 °F 60.8 °F 100% 30.14 in 10.0 mi SSE 6.9 mph - N/A   Overcast
5:35 AM 60.8 °F 60.8 °F 100% 30.15 in 10.0 mi SSE 4.6 mph - N/A   Overcast
5:55 AM 60.8 °F 60.8 °F 100% 30.15 in 10.0 mi SSE 4.6 mph - N/A   Overcast
6:15 AM 60.8 °F 60.8 °F 100% 30.16 in 10.0 mi ESE 3.5 mph - N/A   Overcast
6:35 AM 60.8 °F 60.8 °F 100% 30.18 in 10.0 mi ESE 5.8 mph - N/A   Overcast
6:55 AM 60.8 °F 60.8 °F 100% 30.18 in 10.0 mi SE 5.8 mph - N/A   Overcast
7:15 AM 60.8 °F 60.8 °F 100% 30.18 in 10.0 mi SSE 5.8 mph - N/A   Overcast
7:35 AM 62.6 °F 60.8 °F 94% 30.18 in 10.0 mi Calm Calm - N/A   Overcast
7:55 AM 64.4 °F 60.8 °F 88% 30.18 in 10.0 mi SW 4.6 mph - N/A   Mostly Cloudy
8:15 AM 64.4 °F 60.8 °F 88% 30.19 in 10.0 mi WSW 5.8 mph - N/A   Scattered Clouds
8:35 AM 68.0 °F 60.8 °F 78% 30.19 in 10.0 mi SW 5.8 mph - N/A   Clear
8:55 AM 68.0 °F 57.2 °F 68% 30.19 in 10.0 mi SW 4.6 mph - N/A   Clear
9:15 AM 69.8 °F 57.2 °F 64% 30.20 in 10.0 mi Calm Calm - N/A   Scattered Clouds
9:35 AM 68.0 °F 55.4 °F 64% 30.20 in 10.0 mi Calm Calm - N/A   Mostly Cloudy
9:55 AM 69.8 °F 55.4 °F 60% 30.21 in 10.0 mi Calm Calm - N/A   Overcast
10:15 AM 71.6 °F 57.2 °F 60% 30.21 in 10.0 mi NE 4.6 mph - N/A   Scattered Clouds
10:35 AM 71.6 °F 55.4 °F 57% 30.22 in 10.0 mi NNE 5.8 mph - N/A   Mostly Cloudy
10:55 AM 73.4 °F 57.2 °F 57% 30.24 in 10.0 mi North 3.5 mph - N/A   Scattered Clouds
11:15 AM 73.4 °F 57.2 °F 57% 30.24 in 10.0 mi ENE 3.5 mph - N/A   Scattered Clouds
11:35 AM 75.2 °F 55.4 °F 50% 30.24 in 10.0 mi ENE 3.5 mph - N/A   Clear
11:55 AM 73.4 °F 55.4 °F 53% 30.24 in 10.0 mi NNE 5.8 mph - N/A   Clear
12:15 PM 75.2 °F 59.0 °F 57% 30.25 in 10.0 mi ENE 6.9 mph - N/A   Scattered Clouds
12:35 PM 77.0 °F 59.0 °F 54% 30.24 in 10.0 mi ENE 13.8 mph - N/A   Mostly Cloudy
12:55 PM 77.0 °F 59.0 °F 54% 30.24 in 10.0 mi ENE 10.4 mph - N/A   Scattered Clouds
1:15 PM 73.4 °F 59.0 °F 61% 30.24 in 10.0 mi ENE 10.4 mph 16.1 mph N/A   Scattered Clouds
1:35 PM 77.0 °F 59.0 °F 54% 30.25 in 10.0 mi ENE 8.1 mph 17.3 mph N/A   Scattered Clouds
1:55 PM 73.4 °F 59.0 °F 61% 30.25 in 10.0 mi NE 10.4 mph - N/A   Mostly Cloudy
2:15 PM 73.4 °F 57.2 °F 57% 30.25 in 10.0 mi ENE 13.8 mph 19.6 mph N/A   Overcast
2:35 PM 77.0 °F 57.2 °F 50% 30.26 in 10.0 mi NNE 12.7 mph 17.3 mph N/A   Scattered Clouds
2:55 PM 75.2 °F 57.2 °F 53% 30.26 in 10.0 mi ENE 13.8 mph 19.6 mph N/A   Mostly Cloudy
3:15 PM 77.0 °F 57.2 °F 50% 30.26 in 10.0 mi ENE 9.2 mph 16.1 mph N/A   Scattered Clouds
3:35 PM 73.4 °F 57.2 °F 57% 30.26 in 10.0 mi NE 13.8 mph 18.4 mph N/A   Mostly Cloudy
3:55 PM 75.2 °F 57.2 °F 53% 30.26 in 10.0 mi NE 12.7 mph 18.4 mph N/A   Scattered Clouds
4:15 PM 73.4 °F 57.2 °F 57% 30.26 in 10.0 mi ENE 11.5 mph 17.3 mph N/A   Scattered Clouds
4:35 PM 75.2 °F 57.2 °F 53% 30.27 in 10.0 mi East 13.8 mph 18.4 mph N/A   Scattered Clouds
4:55 PM 73.4 °F 57.2 °F 57% 30.27 in 10.0 mi ENE 11.5 mph 17.3 mph N/A   Scattered Clouds
5:15 PM 73.4 °F 57.2 °F 57% 30.28 in 10.0 mi ENE 15.0 mph 19.6 mph N/A   Scattered Clouds
5:35 PM 73.4 °F 57.2 °F 57% 30.29 in 10.0 mi ENE 12.7 mph 16.1 mph N/A   Mostly Cloudy
5:55 PM 73.4 °F 57.2 °F 57% 30.29 in 10.0 mi ENE 10.4 mph - N/A   Scattered Clouds
6:15 PM 73.4 °F 57.2 °F 57% 30.28 in 10.0 mi ENE 11.5 mph - N/A   Scattered Clouds
6:35 PM 73.4 °F 55.4 °F 53% 30.28 in 10.0 mi ENE 11.5 mph 16.1 mph N/A   Clear
6:55 PM 71.6 °F 55.4 °F 57% 30.29 in 10.0 mi ENE 9.2 mph - N/A   Clear
7:15 PM 71.6 °F 55.4 °F 57% 30.29 in 10.0 mi ENE 15.0 mph - N/A   Clear
7:35 PM 69.8 °F 55.4 °F 60% 30.30 in 10.0 mi ENE 9.2 mph - N/A   Clear
7:55 PM 69.8 °F 55.4 °F 60% 30.31 in 10.0 mi East 11.5 mph 18.4 mph N/A   Clear
8:15 PM 68.0 °F 55.4 °F 64% 30.31 in 10.0 mi ENE 9.2 mph - N/A   Clear
8:35 PM 66.2 °F 55.4 °F 68% 30.33 in 10.0 mi ENE 6.9 mph - N/A   Clear
8:55 PM 64.4 °F 55.4 °F 73% 30.33 in 10.0 mi ENE 8.1 mph - N/A   Clear
9:15 PM 64.4 °F 57.2 °F 77% 30.33 in 10.0 mi ENE 10.4 mph - N/A   Clear
9:35 PM 62.6 °F 57.2 °F 82% 30.35 in 10.0 mi ENE 9.2 mph - N/A   Clear
9:55 PM 62.6 °F 59.0 °F 88% 30.36 in 10.0 mi ENE 9.2 mph - N/A   Clear
10:15 PM 62.6 °F 60.8 °F 94% 30.36 in 10.0 mi ENE 6.9 mph - N/A   Scattered Clouds
10:35 PM 60.8 °F 60.8 °F 100% 30.37 in 10.0 mi East 8.1 mph - N/A   Mostly Cloudy
10:55 PM 62.6 °F 60.8 °F 94% 30.39 in 10.0 mi ESE 9.2 mph - N/A   Overcast
11:15 PM 62.6 °F 60.8 °F 94% 30.38 in 10.0 mi East 9.2 mph - N/A   Overcast
11:35 PM 60.8 °F 60.8 °F 100% 30.39 in 10.0 mi East 10.4 mph - N/A   Overcast
11:55 PM 60.8 °F 60.8 °F 100% 30.39 in 10.0 mi East 10.4 mph - N/A   Overcast